sat.trackr.live / text

‹ back to catalog

STARLINK-4289

NORAD 53024 · 2022-076AQ

PAYLOAD ACTIVE UNKNOWN

§ Identity

Operator
Country
US
Launch date
2022-07-07
Launch site
AFETR
Launch vehicle
Mass (kg)
RCS (m²)

Purposes: comms

External: N2YO · Heavens-Above · Gunter

§ Orbital elements

Epoch: 2026-09-19T01:27:17.721792Z

Period
93.79 min
Inclination
53.1606°
Eccentricity
0.0001254
Mean motion
15.35393276 rev/d
Perigee alt
458.9 km
Apogee alt
460.6 km
Semi-major
6,837.9 km
B*
3.6413e-5
RAAN
288.1234°
Arg perigee
90.2755°
Mean anomaly
269.8392°
Rev number
23,228

§ Raw data

STARLINK-42891 53024U 22076AQ  26262.06062178  .00000890  00000+0  36413-4 0  99962 53024  53.1606 288.1234 0001254  90.2755 269.8392 15.35393276232285

JSON: /api/v1/satellites/53024 · /tle

For live sub-satellite position, see the globe view (requires WebGL).

§ Visibility from observer

Set your observer location to see the next 7 days of passes ≥ 10°. The values pass through the URL so the page stays shareable.

No JS? Fill the form by hand. The geolocation button needs JavaScript.